Location: Helsinki
(60.1699°N, 24.9384°E)
Time: 19:14:47
(UTC+02:00)

Transit 4A - Pass Details

Date: 28 October 2020
Orbit: 862 x 982 km, 66.8° (Epoch: 29 November)

Event Time Altitude Azimuth Distance (km) Brightness Sun altitude
Rises 13:52:03 0° 147° (SSE) 3,619 11.4 13.3°
Reaches altitude 10° 13:56:44 10° 115° (ESE) 2,706 10.4 13.1°
Maximum altitude 13:58:31 11° 98° (E) 2,623 10.1 13.0°
Drops below altitude 10° 14:00:19 10° 82° (E) 2,726 10.0 12.8°
Sets 14:05:04 0° 51° (NE) 3,694 10.4 12.6°
